Wind_Speed
1 6 8 8 7 5 6 7 11 13 12 11 11 12 13 13 14 14 15 15 13 13 14 13 14 17 17 17 18 20 20 22 23 23 24 26 28 28 28 24 22 23 22
2 7 9 7 3 6 7 8 11 11 10 9 11 12 13 14 15 15 15 15 13 14 14 13 14 15 15 16 17 20 21 23 24 24 25 25 25 25 25 26 27 25 23
3 6 12 6 1 3 6 8 9 10 9 8 9 10 11 12 14 16 16 15 14 14 13 14 15 15 16 18 19 22 22 23 25 25 24 24 23 21 21 23 25 24 23
5 11 10 11 7 4 7 9 8 6 5 7 8 10 12 15 17 18 18 17 15 15 15 14 14 16 18 19 20 22 25 25 25 24 22 23 25 26 25 22 23 23 22
7 13 11 14 11 8 7 8 8 6 6 7 10 12 13 15 17 17 18 17 17 15 15 17 18 18 20 20 21 24 26 27 27 26 26 26 25 27 28 25 21 20 19
14 19 18 20 14 12 8 6 6 5 6 9 11 14 16 17 18 18 18 19 21 20 19 19 19 20 21 23 23 23 22 25 25 24 24 23 27 31 28 21 20 18 16
19 22 24 25 21 14 14 10 8 7 8 12 15 16 16 18 18 20 20 20 21 20 20 19 20 22 23 23 26 27 24 22 24 25 24 23 27 28 25 21 18 16 16
22 24 24 25 24 13 18 15 12 10 10 11 14 15 16 16 17 20 22 22 21 21 21 23 22 21 23 24 24 28 27 23 23 25 27 29 22 24 24 21 16 16 16
25 26 25 23 20 20 21 19 14 12 11 12 13 15 15 16 18 21 24 25 25 23 22 25 26 26 25 26 25 27 27 27 25 27 28 25 22 24 28 20 17 14 15
26 25 24 24 23 23 23 20 19 14 12 10 11 12 13 14 17 21 23 25 25 27 27 28 30 30 30 31 30 28 28 29 27 26 26 25 29 30 22 21 19 16 14
31 29 28 27 24 25 25 25 23 20 14 10 8 9 10 11 14 17 20 22 24 25 27 29 30 33 34 35 36 32 30 29 31 25 27 22 27 24 24 22 21 18 16
29 32 29 30 31 31 30 29 28 23 19 15 12 10 10 12 15 17 20 20 23 24 27 30 32 33 35 37 38 36 33 31 30 28 28 27 29 27 25 22 22 19 18
32 34 35 33 30 26 24 27 28 26 22 21 17 14 12 11 14 17 20 21 24 25 28 31 33 35 36 39 39 38 36 34 30 28 30 30 27 26 25 22 22 19 19
34 34 34 32 31 33 32 27 30 30 28 25 20 17 15 16 16 17 20 23 24 27 29 31 33 35 38 39 41 40 38 36 31 31 29 30 28 27 26 23 19 21 21
32 35 31 35 34 34 31 33 29 32 23 24 20 21 15 12 15 19 20 23 25 28 30 32 34 36 39 40 41 42 40 36 35 33 28 29 30 29 27 25 19 21 25
37 39 42 40 37 35 26 29 23 28 33 27 25 29 17 15 17 20 21 23 26 30 31 33 35 37 39 42 42 43 41 37 36 35 31 31 33 32 28 29 28 26 24
44 43 46 30 27 28 28 32 35 28 32 41 46 38 17 14 18 26 26 25 28 34 36 37 38 40 41 44 42 42 42 38 36 36 34 32 32 33 31 29 30 38 21
48 49 43 38 38 39 38 40 40 37 31 46 38 41 19 19 20 30 32 30 32 36 38 41 40 43 43 45 43 42 40 36 36 37 34 33 34 31 31 31 32 20 18
60 54 52 49 50 46 43 43 41 36 40 44 38 44 23 28 28 33 35 30 35 38 42 44 43 46 45 45 43 39 38 35 36 36 33 33 33 32 29 31 27 23 23
62 64 63 58 57 53 48 50 49 44 39 40 37 33 28 29 31 36 38 36 38 44 46 48 48 48 45 44 41 36 35 34 36 34 32 32 33 32 31 30 25 26 24
61 63 62 62 54 53 56 54 52 47 45 43 37 36 31 35 35 42 44 40 43 46 49 49 52 50 45 44 37 35 33 33 36 34 33 32 32 31 30 30 27 28 25
60 60 62 64 66 62 63 61 58 57 51 48 41 35 33 37 43 48 45 41 43 49 52 54 54 49 43 41 35 32 31 33 36 34 33 30 32 31 30 28 28 29 27
67 66 62 62 63 64 67 63 63 64 56 50 45 38 37 41 48 51 47 42 44 51 49 53 51 41 36 38 34 31 30 33 34 32 32 33 31 31 30 31 31 29 28
75 75 72 68 68 67 64 63 61 60 60 52 46 44 46 49 51 50 43 43 44 46 46 46 42 36 35 35 32 32 33 34 31 30 34 33 31 28 29 30 32 30 28
64 71 77 76 74 73 71 68 66 69 70 56 51 49 49 52 54 47 36 38 43 41 45 43 37 35 35 32 32 33 35 32 31 31 30 33 32 30 30 29 30 28 27
68 68 71 74 72 72 74 74 66 62 61 50 47 47 49 50 48 36 37 41 39 41 43 38 34 33 34 33 32 33 33 31 30 31 30 28 27 29 29 30 29 26 25
Wind_Direction
280 279 301 332 337 341 360 358 357 5 4 3 350 344 340 337 340 336 337 335 335 335 335 337 333 338 335 328 320 319 317 314 308 306 305 297 295 294 292 290 287 291 286
297 280 286 337 12 42 28 19 9 1 354 352 357 350 348 343 341 343 342 338 337 333 335 342 338 333 325 320 321 319 318 317 314 314 310 310 307 306 304 298 290 286 286
28 337 280 291 327 11 357 7 358 358 354 4 9 357 354 349 349 349 343 345 342 344 344 345 341 336 332 331 329 327 322 320 318 318 322 322 318 316 308 299 293 291 291
337 318 274 284 274 306 335 358 358 360 16 15 11 5 355 341 343 343 339 340 340 341 344 346 349 341 337 334 328 326 327 329 326 326 326 322 316 311 311 309 297 295 291
299 286 268 281 273 287 318 351 2 7 356 357 351 355 353 350 344 346 341 343 344 348 351 350 349 345 337 336 332 333 329 326 327 328 326 323 324 320 314 308 303 296 291
273 275 278 282 268 273 294 313 355 347 329 324 332 340 349 358 357 351 353 350 343 343 349 349 347 347 341 336 330 329 329 328 330 324 326 332 335 332 327 317 304 297 297
267 270 271 274 273 263 276 289 305 326 325 320 316 324 336 339 347 348 351 350 348 348 345 345 346 346 342 337 330 330 330 333 327 326 321 327 334 337 334 324 309 294 299
241 249 255 270 272 265 265 276 286 299 314 320 330 334 333 336 350 355 355 359 359 360 355 347 345 345 341 337 332 327 329 329 326 318 315 326 333 332 334 329 321 303 297
248 252 256 262 257 253 251 262 275 285 299 308 321 326 333 339 345 354 357 358 360 359 359 354 348 345 343 337 333 327 325 326 326 314 313 316 326 322 321 325 318 309 298
249 253 256 255 243 242 250 260 266 280 294 313 325 318 323 332 342 353 353 353 357 356 355 354 350 345 341 336 334 330 324 322 326 320 321 324 321 316 321 318 318 306 300
241 246 246 242 243 251 260 265 269 272 279 284 306 319 323 330 343 342 350 351 352 355 355 352 348 346 343 336 334 331 323 322 328 320 322 325 328 324 311 314 316 309 310
231 243 245 240 240 249 258 267 272 271 267 264 274 298 321 328 334 338 335 341 339 347 348 347 344 342 343 338 334 329 323 319 325 311 316 317 320 313 309 308 309 310 309
241 239 242 231 230 240 250 260 265 271 265 262 261 276 296 316 326 326 326 326 328 336 340 340 340 337 339 339 334 326 320 318 320 313 314 315 315 313 313 308 297 294 302
233 228 233 231 232 240 242 254 263 270 261 257 253 272 287 301 312 319 321 318 323 326 330 332 331 332 331 334 334 325 317 315 315 312 309 308 312 315 312 315 292 290 292
226 231 224 231 232 238 241 249 250 273 244 238 249 259 270 299 310 307 307 312 316 317 320 322 324 325 325 327 331 324 317 313 311 312 309 303 307 306 308 303 294 290 294
237 236 228 231 235 240 245 241 255 274 252 236 241 241 261 288 309 310 309 313 312 310 311 315 314 316 318 320 325 322 315 311 307 308 306 297 302 304 302 298 295 288 290
244 238 227 239 231 242 248 246 258 261 276 254 242 251 265 279 304 308 306 309 312 309 308 307 309 309 311 315 317 317 313 309 305 305 302 297 297 300 303 299 295 302 282
239 243 235 233 238 251 263 265 262 246 256 264 245 275 284 279 280 296 299 309 308 306 303 302 306 306 310 308 310 313 311 309 305 303 298 296 296 300 303 302 306 295 305
241 239 244 238 252 260 257 258 246 241 256 264 272 285 291 290 280 285 296 305 303 307 304 299 303 305 307 303 304 311 309 305 305 300 295 295 296 301 300 297 308 315 300
241 246 247 248 252 259 250 251 254 259 260 272 264 277 282 277 272 275 295 299 304 304 299 295 302 304 301 298 303 308 305 304 306 298 293 294 295 299 298 291 302 304 298
238 241 246 249 246 253 259 260 256 259 260 261 268 267 274 274 279 282 290 300 296 296 287 294 299 300 297 295 301 305 303 301 301 295 292 294 297 296 296 297 296 301 294
236 240 244 245 249 252 253 256 257 258 257 259 256 261 271 275 281 281 287 292 295 290 288 290 296 295 292 292 302 302 303 297 294 295 294 294 292 296 295 296 295 296 291
238 238 243 246 248 247 251 255 256 259 261 261 260 265 273 272 272 277 284 285 290 286 288 287 290 292 288 294 299 303 301 293 290 295 293 292 291 296 294 296 298 292 287
230 235 241 245 250 253 253 256 257 259 263 264 262 267 268 267 273 281 286 279 281 281 286 283 286 287 291 296 298 302 300 293 288 290 294 292 296 293 292 292 291 291 289
243 241 241 243 246 253 257 255 256 262 267 268 265 268 263 272 277 283 281 276 276 281 278 281 285 291 293 294 299 300 295 289 290 291 292 291 292 292 292 291 294 289 285
238 240 242 241 243 246 251 257 261 263 264 266 270 271 273 277 279 280 278 276 278 275 275 284 289 291 291 292 296 294 290 290 291 294 293 289 289 290 291 287 292 290 285
Height
5892 5893 5893 5895 5896 5895 5895 5896 5896 5896 5896 5895 5895 5896 5895 5895 5893 5892 5892 5891 5890 5888 5887 5884 5882 5881 5880 5878 5876 5875 5872 5870 5867 5864 5861 5859 5856 5854 5851 5850 5848 5846 5847
5891 5892 5893 5895 5895 5895 5895 5894 5894 5894 5894 5894 5894 5894 5894 5894 5893 5892 5891 5890 5888 5886 5885 5883 5882 5880 5879 5877 5875 5873 5871 5868 5864 5861 5857 5855 5852 5850 5848 5847 5845 5844 5843
5890 5892 5892 5894 5895 5895 5895 5893 5893 5893 5894 5894 5894 5894 5894 5893 5892 5891 5890 5888 5887 5884 5883 5881 5880 5879 5877 5875 5873 5871 5868 5865 5861 5858 5855 5852 5850 5847 5845 5844 5842 5841 5840
5889 5892 5892 5894 5895 5895 5895 5894 5894 5894 5894 5894 5894 5893 5893 5893 5891 5890 5889 5887 5886 5884 5881 5880 5878 5876 5875 5873 5872 5869 5865 5861 5858 5856 5854 5851 5848 5845 5843 5841 5840 5838 5837
5887 5890 5891 5892 5894 5895 5895 5895 5894 5894 5894 5895 5895 5893 5892 5890 5890 5889 5888 5887 5885 5882 5880 5877 5875 5873 5871 5870 5869 5866 5863 5859 5856 5854 5851 5848 5845 5842 5838 5836 5834 5834 5833
5885 5887 5889 5890 5892 5894 5895 5894 5894 5893 5893 5894 5893 5892 5891 5890 5888 5888 5887 5885 5883 5880 5878 5876 5875 5872 5870 5867 5866 5863 5860 5857 5854 5850 5848 5845 5842 5837 5834 5832 5831 5830 5830
5882 5884 5885 5886 5889 5892 5893 5893 5892 5892 5892 5892 5891 5890 5889 5889 5887 5886 5885 5883 5881 5880 5877 5875 5873 5871 5869 5866 5863 5861 5859 5855 5851 5848 5845 5843 5839 5835 5832 5830 5828 5827 5827
5878 5880 5881 5883 5886 5889 5891 5891 5891 5891 5890 5890 5889 5888 5888 5887 5886 5884 5883 5882 5879 5878 5876 5874 5871 5869 5866 5864 5861 5858 5855 5853 5849 5845 5842 5839 5837 5835 5832 5829 5827 5826 5826
5873 5877 5879 5880 5881 5884 5887 5889 5890 5889 5889 5889 5888 5887 5886 5885 5883 5882 5880 5879 5878 5876 5874 5871 5870 5868 5864 5861 5859 5856 5853 5849 5847 5843 5839 5837 5835 5833 5830 5827 5826 5823 5823
5868 5872 5875 5876 5878 5880 5884 5886 5887 5888 5888 5887 5886 5885 5884 5883 5882 5880 5879 5878 5876 5875 5873 5870 5867 5865 5862 5859 5856 5854 5850 5846 5844 5841 5836 5834 5831 5828 5828 5826 5824 5821 5819
5864 5867 5870 5872 5874 5876 5879 5882 5884 5886 5886 5885 5884 5882 5881 5881 5879 5879 5877 5876 5875 5873 5871 5868 5866 5863 5860 5857 5854 5851 5848 5844 5841 5838 5834 5832 5828 5827 5825 5823 5822 5819 5817
5858 5862 5865 5868 5870 5872 5875 5878 5881 5883 5884 5883 5883 5881 5880 5879 5878 5877 5877 5874 5873 5871 5869 5866 5864 5861 5858 5855 5851 5848 5845 5842 5839 5836 5832 5829 5826 5824 5821 5820 5819 5816 5815
5854 5857 5860 5862 5865 5869 5871 5873 5876 5879 5881 5880 5880 5879 5878 5876 5875 5875 5874 5872 5871 5869 5867 5865 5862 5859 5855 5852 5849 5845 5842 5839 5836 5832 5829 5825 5822 5820 5817 5816 5814 5813 5811
5845 5848 5851 5857 5859 5864 5866 5869 5870 5873 5875 5876 5877 5876 5875 5874 5872 5871 5871 5871 5868 5867 5864 5862 5859 5856 5852 5848 5845 5842 5838 5836 5832 5828 5825 5821 5818 5816 5813 5812 5810 5808 5807
5837 5841 5846 5848 5853 5857 5859 5863 5865 5867 5868 5870 5870 5871 5871 5869 5869 5868 5867 5867 5865 5863 5861 5858 5856 5852 5849 5844 5841 5838 5835 5831 5828 5825 5821 5818 5815 5812 5809 5808 5808 5805 5803
5830 5833 5838 5841 5845 5849 5852 5856 5858 5861 5863 5864 5865 5865 5865 5865 5866 5865 5864 5862 5860 5859 5856 5854 5852 5847 5844 5840 5837 5833 5830 5827 5824 5821 5817 5813 5810 5808 5805 5804 5803 5801 5799
5821 5826 5829 5831 5836 5841 5846 5850 5851 5854 5856 5856 5854 5859 5858 5859 5861 5861 5859 5858 5855 5854 5851 5849 5846 5842 5838 5834 5831 5828 5825 5821 5819 5816 5813 5809 5805 5804 5801 5800 5797 5795 5794
5811 5818 5820 5824 5828 5833 5837 5842 5844 5846 5846 5850 5846 5850 5850 5850 5853 5854 5854 5852 5850 5848 5846 5842 5839 5835 5832 5827 5824 5822 5819 5816 5814 5811 5808 5804 5801 5800 5797 5794 5791 5790 5790
5801 5806 5811 5816 5818 5823 5828 5831 5829 5837 5840 5842 5842 5839 5840 5843 5845 5846 5848 5847 5844 5841 5838 5835 5832 5828 5826 5820 5818 5816 5813 5811 5808 5806 5802 5799 5796 5794 5793 5790 5787 5787 5786
5792 5795 5800 5806 5810 5813 5817 5821 5824 5827 5833 5836 5838 5837 5838 5833 5837 5838 5841 5841 5837 5834 5831 5827 5825 5822 5818 5813 5812 5810 5806 5805 5803 5799 5796 5793 5790 5789 5788 5786 5783 5783 5781
5781 5787 5791 5797 5800 5803 5806 5813 5817 5822 5825 5829 5830 5832 5831 5832 5831 5831 5832 5832 5830 5827 5822 5820 5817 5815 5812 5806 5805 5803 5801 5799 5797 5794 5791 5788 5784 5783 5781 5778 5777 5776 5774
5770 5774 5780 5785 5789 5794 5797 5803 5806 5811 5814 5817 5822 5824 5826 5827 5825 5822 5824 5825 5821 5817 5815 5813 5810 5808 5805 5799 5799 5797 5795 5794 5791 5788 5785 5782 5778 5776 5775 5773 5771 5769 5767
5757 5763 5768 5772 5776 5781 5786 5791 5795 5798 5803 5807 5812 5817 5818 5817 5814 5813 5817 5815 5811 5808 5806 5804 5802 5800 5797 5793 5791 5791 5789 5789 5786 5781 5778 5774 5772 5770 5769 5765 5763 5761 5759
5742 5749 5753 5758 5763 5769 5775 5778 5782 5788 5793 5798 5802 5806 5807 5806 5805 5805 5806 5804 5801 5800 5798 5796 5795 5793 5789 5787 5785 5783 5783 5782 5779 5777 5771 5766 5766 5765 5763 5760 5756 5754 5752
5726 5733 5741 5746 5752 5756 5761 5767 5773 5776 5782 5789 5794 5796 5797 5796 5795 5796 5795 5793 5793 5792 5790 5790 5788 5785 5781 5781 5777 5777 5777 5775 5773 5770 5767 5762 5759 5758 5755 5752 5749 5746 5745
5713 5719 5725 5734 5741 5746 5751 5755 5760 5767 5772 5778 5782 5784 5785 5784 5784 5785 5785 5785 5785 5784 5783 5782 5781 5777 5775 5775 5772 5772 5770 5768 5766 5763 5760 5756 5755 5753 5749 5746 5743 5740 5739